Regional Weather Roundup
Issued by NWS

Home | Current Version | Previous Version | Text Only | Print | Product List | Glossary On
Versions: 1 2 3 4 5 6 7 8 9 10 11 12 13 14 15 16 17 18 19 20 21 22 23 24 25 26 27 28 29 30 31 32 33 34 35 36 37 38 39 40 41 42 43 44 45 46 47 48 49 50
000
ASUS43 KLMK 010210
RWRKY
KENTUCKY REGIONAL WEATHER ROUNDUP
NATIONAL WEATHER SERVICE LOUISVILLE KY
1000 PM EDT FRI JUL 31 2015

NOTE "FAIR" INDICATES FEW OR NO CLOUDS BELOW 12,000 FEET
WITH NO SIGNIFICANT WEATHER AND/OR OBSTRUCTIONS TO VISIBILITY.

KYZ001>023-026-027-061>063-070>075-010300-
WESTERN AND SOUTH CENTRAL KENTUCKY

CITY           SKY/WX    TMP DP  RH WIND       PRES   REMARKS
PADUCAH        CLEAR     75  71  87 CALM      30.02R
HENDERSON      CLEAR     75  70  83 SW3       30.00R
OWENSBORO      CLEAR     78  71  79 CALM      30.01R
HOPKINSVILLE   CLEAR     77  68  72 N5        30.03R
BOWLING GREEN  CLEAR     78  63  59 CALM      30.03R
GLASGOW        CLEAR    N/A N/A N/A CALM      30.03R
$$

KYZ024-025-028>034-038-045-046-053-010300-
NORTH CENTRAL KENTUCKY

CITY           SKY/WX    TMP DP  RH WIND       PRES   REMARKS
LOUISVILLE/SDF PTCLDY    82  60  47 SW7       29.99R
LOUISVILLE/LOU CLEAR     80  60  50 SW5       30.00R
FORT KNOX      CLEAR     72  64  75 CALM      30.00R
$$

KYZ035>037-039>044-047>052-055>060-089>105-010300-
NORTHEAST KENTUCKY

CITY           SKY/WX    TMP DP  RH WIND       PRES   REMARKS
LEXINGTON      CLEAR     73  62  68 S5        30.01S
COVINGTON      PTCLDY    76  60  57 SW6       29.97S
FRANKFORT      CLEAR     72  64  76 SW5       30.00R
$$

KYZ054-064>069-076>088-106>120-010300-
SOUTHEAST KENTUCKY

CITY           SKY/WX    TMP DP  RH WIND       PRES   REMARKS
JACKSON        CLEAR     74  60  61 CALM      30.03S
LONDON         CLEAR     73  60  63 CALM      30.04R
SOMERSET       CLEAR     70  63  78 CALM      30.05R
MIDDLESBORO    CLEAR     70  62  77 CALM      30.06R
MONTICELLO     CLEAR     68  66  93 CALM      30.07R
$$




USA.gov is the U.S. government's official web portal to all federal, state and local government web resources and services.